[[{"header":{"parameterUnit":"m.s-1","parameterCategory":1,"la1":30.2991,"la2":30.254,"lo1":-89.0895,"lo2":-89.0444,"dy":0.0017,"dx":0.0017,"nx":28,"ny":28,"refTime":"2023-03-16T21:00:00:Z","depth":0,"parameterNumber":2,"parameterNumberName":"U-component_of_WINDS"},"data":[0,0,0,0,0,0,0,0,0,0,0,0,0,0,0,0,0,0,0,0,0,0,0,0,0,0,0,0,0,0,0,0,0,0,0,0,0,0,0,0,0,0,0,0,0,0,0,0,0,0,0,0,0,0,0,0,0,0,-2.075,-2.0752,0,-2.09,-2.0901,-2.0903,-2.096,-2.096,-2.096,-2.0959,-2.1115,-2.1119,-2.1124,0,0,0,0,0,0,0,0,0,0,0,0,0,-2.0516,-2.052,-2.075,-2.0752,-2.0754,-2.0899,-2.0901,-2.0904,-2.0961,-2.096,-2.0959,-2.0959,-2.1113,-2.1119,-2.1124,0,0,0,0,0,0,0,0,0,0,0,0,0,-2.0637,-2.0522,-2.0749,-2.08,-2.0806,-2.0899,-2.0902,-2.0904,-2.0961,-2.096,-2.0959,-2.0959,-2.1112,-2.1118,-2.1125,-2.118,0,0,-2.1146,-2.1149,0,0,0,0,0,0,0,0,-2.063,-2.0646,-2.079,-2.0796,-2.0803,-2.0911,-2.0876,-2.0997,-2.0961,-2.0902,-2.0959,-2.0958,-2.1048,-2.106,-2.1089,-2.1188,-2.1194,-2.1146,-2.1151,-2.1153,-2.1155,0,0,0,0,0,0,0,-2.0622,-2.0639,-2.0809,-2.0792,-2.08,-2.0816,-2.0832,-2.0899,-2.0977,-2.0907,-2.0911,-2.0928,-2.1051,-2.1083,-2.1093,-2.1197,-2.1146,-2.1152,-2.1157,-2.1159,-2.1349,-2.135,0,0,0,0,0,0,-2.0605,-2.0632,-2.0804,-2.0814,-2.0713,-2.082,-2.0839,-2.0877,-2.0976,-2.0991,-2.0929,-2.093,-2.1071,-2.1085,-2.1099,-2.1171,-2.1153,-2.116,-2.1164,-2.1348,-2.1349,-2.135,0,0,0,0,0,0,-2.0599,-2.0619,-2.0798,-2.0724,-2.0748,-2.0825,-2.0867,-2.088,-2.0912,-2.0992,-2.1007,-2.0946,-2.1071,-2.1089,-2.116,-2.1177,-2.1163,-2.1169,-2.1347,-2.1349,-2.135,-2.1314,0,0,0,0,0,0,-2.0592,-2.0617,-2.0638,-2.0724,-2.0752,-2.0856,-2.0869,-2.0884,-2.0923,-2.0927,-2.1013,-2.1027,-2.1072,-2.1149,-2.1167,-2.1186,-2.1174,-2.1346,-2.1348,-2.1349,-2.1314,-2.1314,-2.1314,0,0,0,0,0,-2.0584,-2.0623,-2.0639,-2.0659,-2.078,-2.0856,-2.0872,-2.0923,-2.0924,-2.0947,-2.0999,-2.1024,-2.1172,-2.1156,-2.1176,-2.1198,-2.1345,-2.1347,-2.1349,-2.1314,-2.1314,-2.1314,0,0,0,0,0,0,-2.0537,-2.0635,-2.0654,-2.0722,-2.078,-2.0866,-2.0895,-2.0921,-2.0982,-2.0983,-2.1044,-2.1063,-2.1128,-2.1171,-2.115,-2.1257,-2.1261,-2.1267,-2.1227,-2.1228,-2.1228,-2.1216,-2.118,0,0,0,0,0,-2.0535,-2.0588,-2.0671,-2.0723,-2.0751,-2.0818,-2.0853,-2.0887,-2.0951,-2.0976,-2.1034,-2.1095,-2.1156,-2.1194,-2.1255,-2.1321,-2.1341,-2.1346,-2.1346,-2.1346,-2.135,-2.1389,-2.1393,-2.1357,-2.1357,-2.1357,0,0,-2.053,-2.059,-2.062,-2.0715,-2.0764,-2.0819,-2.0838,-2.0895,-2.0937,-2.0985,-2.1055,-2.1099,-2.1172,-2.1241,-2.1274,-2.1278,-2.1365,-2.1348,-2.1348,-2.1353,-2.1392,-2.1395,-2.1398,-2.1359,-2.1359,-2.1358,0,0,-2.055,-2.0601,-2.0649,-2.0698,-2.0773,-2.0817,-2.0829,-2.0911,-2.0942,-2.1013,-2.105,-2.1101,-2.1204,-2.1255,-2.1294,-2.1334,-2.1359,-2.1352,-2.1352,-2.1389,-2.1392,-2.1395,-2.1409,-2.1413,-2.1356,-2.1356,-2.1356,0,-2.0535,-2.0618,-2.0671,-2.0726,-2.0767,-2.0813,-2.0863,-2.0909,-2.0999,-2.1027,-2.103,-2.116,-2.1213,-2.1294,-2.1304,-2.1334,-2.135,-2.1342,-2.1387,-2.139,-2.1394,-2.1408,-2.1413,-2.1355,-2.1355,-2.1355,-2.1355,0,-2.0597,-2.0654,-2.0685,-2.077,-2.0814,-2.0867,-2.0928,-2.0967,-2.0998,-2.1042,-2.1114,-2.1179,-2.1253,-2.1275,-2.1306,-2.1361,-2.1361,-2.1375,-2.1379,-2.1395,-2.1409,-2.1415,-2.1353,-2.1353,-2.1353,-2.1354,0,0,-2.0591,-2.0705,-2.0716,-2.0755,-2.0841,-2.0886,-2.0942,-2.1013,-2.1046,-2.1107,-2.1155,-2.1242,-2.1255,-2.1299,-2.1336,-2.1369,-2.1397,-2.1379,-2.1381,-2.138,-2.1462,-2.1451,-2.1457,-2.1414,-2.1416,-2.1417,-2.1456,0,-2.0622,-2.0721,-2.0771,-2.0849,-2.0903,-2.0947,-2.0996,-2.1054,-2.1097,-2.115,-2.1199,-2.1259,-2.1271,-2.1299,-2.1333,-2.1386,-2.1414,-2.1384,-2.1461,-2.1463,-2.144,-2.1465,-2.1453,-2.1487,-2.1462,-2.1463,-2.1464,0,-2.0672,-2.0732,-2.0815,-2.0894,-2.0919,-2.0961,-2.1031,-2.1081,-2.1149,-2.1178,-2.1228,-2.1264,-2.1325,-2.1325,-2.141,-2.1388,-2.1423,-2.1454,-2.1456,-2.1465,-2.1464,-2.1474,-2.1499,-2.1504,-2.1474,-2.1473,-2.1472,0,-2.0659,-2.0761,-2.0824,-2.0856,-2.0951,-2.098,-2.1021,-2.1088,-2.1128,-2.119,-2.1217,-2.1285,-2.1322,-2.1375,-2.1429,-2.1424,-2.1509,-2.1514,-2.1536,-2.1534,-2.1551,-2.155,-2.1582,-2.1574,-2.1574,-2.1574,-2.1573,0,-2.0689,-2.0738,-2.082,-2.0858,-2.0915,-2.0972,-2.1027,-2.1072,-2.1131,-2.118,-2.1223,-2.1268,-2.1337,-2.1391,-2.1434,-2.1498,-2.1515,-2.1541,-2.1552,-2.1537,-2.1534,-2.1561,-2.156,-2.1575,-2.1575,-2.1574,-2.1574,0,-2.0685,-2.0741,-2.0813,-2.0896,-2.0918,-2.0956,-2.1029,-2.1069,-2.1114,-2.1176,-2.1193,-2.1265,-2.1331,-2.1391,-2.1479,-2.1508,-2.1573,-2.1587,-2.155,-2.1556,-2.1574,-2.1572,-2.1625,-2.1636,-2.1619,-2.1619,-2.1619,0,-2.07,-2.0739,-2.0826,-2.0861,-2.0901,-2.0958,-2.0999,-2.1057,-2.1098,-2.1178,-2.1209,-2.1278,-2.1336,-2.144,-2.1501,-2.1569,-2.1584,-2.1598,-2.1595,-2.1579,-2.1585,-2.1581,-2.1586,-2.1598,-2.1598,-2.1597,-2.1597,0,-2.0721,-2.0747,-2.0804,-2.0871,-2.0918,-2.0974,-2.1031,-2.1058,-2.1127,-2.1171,-2.1239,-2.1284,-2.1374,-2.1442,-2.1517,-2.156,-2.1591,-2.1598,-2.1607,-2.1592,-2.1569,-2.1582,-2.1549,-2.1597,-2.1597,-2.1597,-2.1597,-2.1597,-2.0728,-2.0764,-2.0831,-2.0893,-2.0942,-2.0994,-2.1036,-2.1086,-2.1143,-2.122,-2.1251,-2.132,-2.1388,-2.1491,-2.1534,-2.159,-2.1596,-2.1608,-2.1612,-2.1614,-2.1611,-2.156,-2.1604,-2.1604,-2.1604,-2.1604,-2.1604,0,-2.0751,-2.0796,-2.0853,-2.0931,-2.098,-2.1003,-2.1068,-2.1108,-2.1167,-2.1227,-2.1283,-2.1362,-2.1428,-2.1494,-2.1565,-2.1596,-2.1612,-2.1613,-2.1611,-2.1621,-2.1602,-2.1587,-2.1599,-2.1599,-2.1599,-2.1599,-2.1599,-2.1599,-2.0769,-2.0832,-2.0866,-2.0954,-2.1,-2.1066,-2.1101,-2.115,-2.1198,-2.1283,-2.1338,-2.138,-2.1443,-2.1519,-2.1581,-2.1599,-2.1623,-2.162,-2.1642,-2.1623,-2.1622,-2.1622,-2.1609,-2.1625,-2.1625,-2.1657,-2.1657,-2.1657]},{"header":{"parameterUnit":"m.s-1","parameterCategory":1,"la1":30.2991,"la2":30.254,"lo1":-89.0895,"lo2":-89.0444,"dy":0.0017,"dx":0.0017,"nx":28,"ny":28,"refTime":"2023-03-16T21:00:00:Z","depth":0,"parameterNumber":3,"parameterNumberName":"V-component_of_WINDS"},"data":[0,0,0,0,0,0,0,0,0,0,0,0,0,0,0,0,0,0,0,0,0,0,0,0,0,0,0,0,0,0,0,0,0,0,0,0,0,0,0,0,0,0,0,0,0,0,0,0,0,0,0,0,0,0,0,0,0,0,6.2598,6.2599,0,6.2635,6.2635,6.2635,6.2562,6.256,6.2558,6.2555,6.2588,6.2591,6.2594,0,0,0,0,0,0,0,0,0,0,0,0,0,6.2463,6.2466,6.2598,6.2599,6.2599,6.2635,6.2635,6.2636,6.2563,6.256,6.2557,6.2554,6.2587,6.2591,6.2594,0,0,0,0,0,0,0,0,0,0,0,0,0,6.2513,6.2467,6.2598,6.2567,6.2565,6.2634,6.2635,6.2636,6.2563,6.256,6.2556,6.2553,6.2586,6.259,6.2595,6.2695,0,0,6.2609,6.2611,0,0,0,0,0,0,0,0,6.251,6.2518,6.2571,6.257,6.2567,6.259,6.2599,6.2655,6.2564,6.2564,6.2555,6.2551,6.2591,6.2595,6.261,6.2696,6.2698,6.2609,6.2612,6.2614,6.2616,0,0,0,0,0,0,0,6.2507,6.2516,6.2612,6.2572,6.257,6.2551,6.2554,6.2609,6.2597,6.2564,6.2558,6.2564,6.2589,6.2606,6.261,6.2698,6.2609,6.2613,6.2616,6.2618,6.2868,6.2872,0,0,0,0,0,0,6.2507,6.2513,6.2611,6.2614,6.2529,6.2556,6.2559,6.2586,6.2596,6.2594,6.2567,6.256,6.2599,6.2605,6.2611,6.2727,6.2614,6.2619,6.2621,6.2865,6.2869,6.2873,0,0,0,0,0,0,6.2505,6.2517,6.261,6.2562,6.2573,6.2562,6.2593,6.2589,6.2605,6.2599,6.2596,6.2586,6.2597,6.2604,6.2675,6.2727,6.2621,6.2625,6.286,6.2866,6.2871,6.2962,0,0,0,0,0,0,6.2501,6.2516,6.2555,6.2564,6.2575,6.2674,6.2596,6.2592,6.2614,6.2605,6.2616,6.2614,6.2595,6.2668,6.2679,6.2732,6.2628,6.2855,6.2863,6.2869,6.2954,6.297,6.2984,0,0,0,0,0,6.2497,6.2578,6.2557,6.2569,6.2623,6.2677,6.2684,6.2661,6.2618,6.2656,6.2653,6.2614,6.2721,6.2676,6.2688,6.2743,6.2852,6.286,6.2869,6.2947,6.2967,6.2983,0,0,0,0,0,0,6.2573,6.2578,6.2555,6.2642,6.266,6.2665,6.2711,6.2683,6.2712,6.2703,6.2672,6.2675,6.2751,6.2754,6.2704,6.284,6.2779,6.279,6.2834,6.2853,6.2867,6.2863,6.2632,0,0,0,0,0,6.26,6.2645,6.2647,6.2723,6.2734,6.2722,6.2744,6.2726,6.2742,6.2749,6.275,6.2767,6.2805,6.2829,6.2864,6.2956,6.2956,6.2999,6.3014,6.3027,6.3035,6.3083,6.3102,6.2902,6.2902,6.2902,0,0,6.2656,6.2664,6.2694,6.2739,6.275,6.2796,6.2728,6.2779,6.2812,6.2756,6.2822,6.2825,6.2842,6.2923,6.2959,6.2928,6.3092,6.3038,6.3047,6.305,6.3094,6.3113,6.313,6.2908,6.2907,6.2906,0,0,6.278,6.2792,6.2857,6.2871,6.2891,6.2883,6.2899,6.2909,6.2909,6.2976,6.2934,6.2974,6.3039,6.3052,6.3068,6.3201,6.3166,6.3214,6.3289,6.3337,6.3352,6.3366,6.3411,6.3428,6.3223,6.3224,6.3224,0,6.2846,6.2914,6.2893,6.2947,6.2968,6.2923,6.2987,6.3001,6.3031,6.3045,6.3011,6.3093,6.3101,6.3185,6.3218,6.3233,6.3248,6.321,6.3352,6.3366,6.3378,6.3421,6.3439,6.3229,6.3229,6.3228,6.3227,0,6.2994,6.3042,6.3092,6.3123,6.315,6.3209,6.3195,6.3225,6.3206,6.3201,6.327,6.3279,6.3314,6.3333,6.3314,6.3415,6.3395,6.3358,6.3294,6.3403,6.3443,6.3459,6.3237,6.3235,6.3233,6.3232,0,0,6.3162,6.3184,6.3202,6.3216,6.3236,6.3272,6.333,6.3367,6.3391,6.3415,6.346,6.3519,6.3485,6.3503,6.3485,6.3527,6.363,6.3484,6.3484,6.3509,6.374,6.3765,6.3785,6.3609,6.3612,6.3615,6.3737,0,6.3283,6.3383,6.3367,6.3463,6.3507,6.3467,6.3517,6.3534,6.3533,6.3569,6.3567,6.3607,6.3561,6.3571,6.3611,6.3609,6.3676,6.3601,6.3649,6.3651,6.3642,6.3806,6.3833,6.3948,6.3753,6.3756,6.3758,0,6.3437,6.3467,6.3569,6.3583,6.3601,6.3646,6.3678,6.3715,6.3734,6.373,6.3752,6.3727,6.3783,6.3724,6.38,6.375,6.3769,6.3772,6.3776,6.3776,6.3708,6.3807,6.3984,6.4,6.3782,6.378,6.3778,0,6.3546,6.3613,6.3682,6.3696,6.3715,6.3748,6.3757,6.3773,6.3797,6.3825,6.384,6.3874,6.3892,6.3919,6.3904,6.3863,6.3983,6.3922,6.3979,6.398,6.4003,6.4001,6.4181,6.4022,6.4022,6.4021,6.4021,0,6.3681,6.3744,6.3732,6.3774,6.3843,6.3825,6.3894,6.3898,6.3913,6.3954,6.3923,6.3962,6.3942,6.3979,6.3968,6.4032,6.4042,6.4038,6.4034,6.4039,6.4039,6.4049,6.4039,6.4026,6.4025,6.4024,6.4023,0,6.3813,6.3808,6.388,6.3894,6.3899,6.3949,6.396,6.3999,6.3997,6.405,6.4061,6.4057,6.41,6.4089,6.4136,6.4128,6.4208,6.4196,6.4202,6.4198,6.4254,6.4248,6.4444,6.4468,6.4296,6.4298,6.4299,0,6.3897,6.3945,6.3965,6.3992,6.4004,6.4047,6.4071,6.4056,6.4082,6.411,6.4145,6.4186,6.4217,6.4288,6.4287,6.4323,6.4309,6.4376,6.4313,6.4317,6.4306,6.4302,6.4306,6.4386,6.4388,6.439,6.4391,0,6.4047,6.4043,6.408,6.4118,6.4148,6.4176,6.4201,6.4224,6.4211,6.4242,6.4287,6.4312,6.4361,6.44,6.4434,6.4442,6.4414,6.4412,6.4426,6.443,6.4431,6.4429,6.4232,6.4406,6.4404,6.4403,6.4403,6.4402,6.4156,6.4196,6.4217,6.426,6.4278,6.4303,6.434,6.4344,6.4381,6.4421,6.441,6.446,6.4479,6.4521,6.4534,6.4573,6.4547,6.4569,6.4574,6.4578,6.4584,6.4428,6.4579,6.4578,6.4578,6.4578,6.4577,0,6.4302,6.4314,6.4354,6.4391,6.4425,6.44,6.4426,6.4455,6.4501,6.4522,6.4555,6.4606,6.4646,6.4651,6.4688,6.4717,6.4706,6.4727,6.4723,6.4725,6.4606,6.4588,6.4736,6.4736,6.4736,6.4736,6.4736,6.4736,6.4381,6.4448,6.4447,6.4523,6.4535,6.4585,6.4603,6.4625,6.4642,6.4701,6.4734,6.4739,6.4753,6.4791,6.4826,6.4827,6.484,6.4867,6.4862,6.475,6.4734,6.4718,6.4701,6.4871,6.4871,6.4977,6.4978,6.4979]}]]